Starlink 32745

operational
NORAD ID: 62755 Int'l Des: 2025-014 Owner: SPXS Country: US Constellation: starlink
LEOCIRCULAR

Starlink 32745について

説明を読み込み中...

リアルタイム位置

3D地球を読み込み中...

次回通過

高度履歴

Altitude vs Time

uPlot chart will show altitude changes over time

軌道要素

1 62755U 25014W 25306.30477919 .00028061 00000-0 10254-2 0 9994
2 62755 43.0035 153.9551 0002049 270.6405 89.4212 15.27579062 43771
Epoch: Nov 2, 2025 • Age: 15 hours

現在のステータス

高度 486.9 km
速度 7.63 km/s
衛星直下点 40.50°N, 106.16°W
打ち上げ日 Jan 21, 2025
運用期間 0.7 years
タイプ internet

技術仕様

分類 Payload
質量 730.00 kg
乾燥質量 700.00 kg
総質量 730.00 kg
長さ 0.30 m
直径 4.10 m
スパン 29.00 m
形状 Box + pan
製造者 SPXS
バスタイプ Starlink V2M
フェーズステータス In Orbit
所有者/国 SPXS/US

大規模コンステレーション

Loading constellations...